Time,TemperatureF,DewpointF,PressureIn,WindDirection,WindDirectionDegrees,WindSpeedMPH,WindSpeedGustMPH,Humidity,HourlyPrecipIn,Conditions,Clouds,dailyrainin,SolarRadiationWatts/m^2,SoftwareType,DateUTC
2013-01-22 00:02:00,-18.0,-27.0,-100.00,SW,226,2.0,5.0,63,0.00,,,0.00,0.000000,,2013-01-22 06:02:00,
2013-01-22 00:33:00,-20.0,-27.0,-100.00,SW,221,2.0,3.0,67,0.00,,,0.00,0.000000,,2013-01-22 06:33:00,
2013-01-22 00:43:00,-20.0,-27.0,-100.00,SW,221,2.0,3.0,67,0.00,,,0.00,0.000000,,2013-01-22 06:43:00,
2013-01-22 00:53:00,-20.0,-27.0,-100.00,SW,221,2.0,3.0,67,0.00,,,0.00,0.000000,,2013-01-22 06:53:00,
2013-01-22 01:02:00,-20.0,-27.0,-100.00,SW,221,2.0,3.0,67,0.00,,,0.00,0.000000,,2013-01-22 07:02:00,
2013-01-22 01:33:00,-20.0,-28.0,-100.00,WSW,240,3.0,4.0,66,0.00,,,0.00,0.000000,,2013-01-22 07:33:00,
2013-01-22 01:43:00,-20.0,-28.0,-100.00,WSW,240,3.0,4.0,66,0.00,,,0.00,0.000000,,2013-01-22 07:43:00,
2013-01-22 01:53:00,-20.0,-28.0,-100.00,WSW,240,3.0,4.0,66,0.00,,,0.00,0.000000,,2013-01-22 07:53:00,
2013-01-22 02:02:00,-20.0,-28.0,-100.00,WSW,240,3.0,4.0,66,0.00,,,0.00,0.000000,,2013-01-22 08:02:00,
2013-01-22 02:33:00,-18.0,-26.0,-100.00,WSW,252,2.0,5.0,66,0.00,,,0.00,0.000000,,2013-01-22 08:33:00,
2013-01-22 02:43:00,-18.0,-26.0,-100.00,WSW,252,2.0,5.0,66,0.00,,,0.00,0.000000,,2013-01-22 08:43:00,
2013-01-22 02:53:00,-18.0,-26.0,-100.00,WSW,252,2.0,5.0,66,0.00,,,0.00,0.000000,,2013-01-22 08:53:00,
2013-01-22 03:02:00,-18.0,-26.0,-100.00,WSW,252,2.0,5.0,66,0.00,,,0.00,0.000000,,2013-01-22 09:02:00,
2013-01-22 03:33:00,-20.0,-28.0,-100.00,West,259,2.0,4.0,65,0.00,,,0.00,0.000000,,2013-01-22 09:33:00,
2013-01-22 03:43:00,-20.0,-28.0,-100.00,West,259,2.0,4.0,65,0.00,,,0.00,0.000000,,2013-01-22 09:43:00,
2013-01-22 03:52:00,-20.0,-28.0,-100.00,West,259,2.0,4.0,65,0.00,,,0.00,0.000000,,2013-01-22 09:52:00,
2013-01-22 04:02:00,-20.0,-28.0,-100.00,West,259,2.0,4.0,65,0.00,,,0.00,0.000000,,2013-01-22 10:02:00,
2013-01-22 04:33:00,-17.0,-25.0,-100.00,WNW,298,2.0,6.0,67,0.00,,,0.00,0.000000,,2013-01-22 10:33:00,
2013-01-22 04:43:00,-17.0,-25.0,-100.00,WNW,298,2.0,6.0,67,0.00,,,0.00,0.000000,,2013-01-22 10:43:00,
2013-01-22 04:52:00,-17.0,-25.0,-100.00,WNW,298,2.0,6.0,67,0.00,,,0.00,0.000000,,2013-01-22 10:52:00,
2013-01-22 05:02:00,-17.0,-25.0,-100.00,WNW,298,2.0,6.0,67,0.00,,,0.00,0.000000,,2013-01-22 11:02:00,
2013-01-22 05:33:00,-19.0,-27.0,-100.00,West,276,2.0,5.0,65,0.00,,,0.00,0.000000,,2013-01-22 11:33:00,
2013-01-22 05:43:00,-19.0,-27.0,-100.00,West,276,2.0,5.0,65,0.00,,,0.00,0.000000,,2013-01-22 11:43:00,
2013-01-22 05:53:00,-19.0,-27.0,-100.00,West,276,2.0,5.0,65,0.00,,,0.00,0.000000,,2013-01-22 11:53:00,
2013-01-22 06:03:00,-19.0,-27.0,-100.00,West,276,2.0,5.0,65,0.00,,,0.00,0.000000,,2013-01-22 12:03:00,
2013-01-22 06:33:00,-23.0,-31.0,-100.00,SW,218,2.0,3.0,63,0.00,,,0.00,0.000000,,2013-01-22 12:33:00,
2013-01-22 06:43:00,-23.0,-31.0,-100.00,SW,218,2.0,3.0,63,0.00,,,0.00,0.000000,,2013-01-22 12:43:00,
2013-01-22 06:53:00,-23.0,-31.0,-100.00,SW,218,2.0,3.0,63,0.00,,,0.00,0.000000,,2013-01-22 12:53:00,
2013-01-22 07:03:00,-23.0,-31.0,-100.00,SW,218,2.0,3.0,63,0.00,,,0.00,0.000000,,2013-01-22 13:03:00,
2013-01-22 07:34:00,-25.0,-34.0,-100.00,SSW,192,0.0,2.0,62,0.00,,,0.00,0.000000,,2013-01-22 13:34:00,
2013-01-22 07:43:00,-25.0,-34.0,-100.00,SSW,192,0.0,2.0,62,0.00,,,0.00,0.000000,,2013-01-22 13:43:00,
2013-01-22 07:53:00,-25.0,-34.0,-100.00,SSW,192,0.0,2.0,62,0.00,,,0.00,0.000000,,2013-01-22 13:53:00,
2013-01-22 08:03:00,-25.0,-34.0,-100.00,SSW,192,0.0,2.0,62,0.00,,,0.00,0.000000,,2013-01-22 14:03:00,
2013-01-22 08:34:00,-25.0,-34.0,-100.00,SW,227,2.0,3.0,61,0.00,,,0.00,4.000000,,2013-01-22 14:34:00,
2013-01-22 08:44:00,-25.0,-34.0,-100.00,SW,227,2.0,3.0,61,0.00,,,0.00,4.000000,,2013-01-22 14:44:00,
2013-01-22 08:54:00,-25.0,-34.0,-100.00,SW,227,2.0,3.0,61,0.00,,,0.00,4.000000,,2013-01-22 14:54:00,
2013-01-22 09:03:00,-25.0,-34.0,-100.00,SW,227,2.0,3.0,61,0.00,,,0.00,4.000000,,2013-01-22 15:03:00,
2013-01-22 09:34:00,-12.0,-21.0,-100.00,WSW,241,3.0,5.0,64,0.00,,,0.00,74.000000,,2013-01-22 15:34:00,
2013-01-22 09:44:00,-12.0,-21.0,-100.00,WSW,241,3.0,5.0,64,0.00,,,0.00,74.000000,,2013-01-22 15:44:00,
2013-01-22 09:53:00,-12.0,-21.0,-100.00,WSW,241,3.0,5.0,64,0.00,,,0.00,74.000000,,2013-01-22 15:53:00,
2013-01-22 10:03:00,-12.0,-21.0,-100.00,WSW,241,3.0,5.0,64,0.00,,,0.00,74.000000,,2013-01-22 16:03:00,
2013-01-22 10:33:00,-8.0,-19.0,-100.00,WSW,249,4.0,7.0,58,0.00,,,0.00,212.000000,,2013-01-22 16:33:00,
2013-01-22 10:43:00,-8.0,-19.0,-100.00,WSW,249,4.0,7.0,58,0.00,,,0.00,212.000000,,2013-01-22 16:43:00,
2013-01-22 10:54:00,-8.0,-19.0,-100.00,WSW,249,4.0,7.0,58,0.00,,,0.00,212.000000,,2013-01-22 16:54:00,
2013-01-22 11:03:00,-8.0,-19.0,-100.00,WSW,249,4.0,7.0,58,0.00,,,0.00,212.000000,,2013-01-22 17:03:00,
2013-01-22 11:35:00,-6.0,-20.0,-100.00,WSW,248,5.0,8.0,49,0.00,,,0.00,279.000000,,2013-01-22 17:35:00,
2013-01-22 11:44:00,-6.0,-20.0,-100.00,WSW,248,5.0,8.0,49,0.00,,,0.00,279.000000,,2013-01-22 17:44:00,
2013-01-22 11:54:00,-6.0,-20.0,-100.00,WSW,248,5.0,8.0,49,0.00,,,0.00,279.000000,,2013-01-22 17:54:00,
2013-01-22 12:03:00,-6.0,-20.0,-100.00,WSW,248,5.0,8.0,49,0.00,,,0.00,279.000000,,2013-01-22 18:03:00,
2013-01-22 12:34:00,-4.0,-20.0,-100.00,West,270,6.0,14.0,44,0.00,,,0.00,403.000000,,2013-01-22 18:34:00,
2013-01-22 12:44:00,-4.0,-20.0,-100.00,West,270,6.0,14.0,44,0.00,,,0.00,403.000000,,2013-01-22 18:44:00,
2013-01-22 12:54:00,-4.0,-20.0,-100.00,West,270,6.0,14.0,44,0.00,,,0.00,403.000000,,2013-01-22 18:54:00,
2013-01-22 13:03:00,-4.0,-20.0,-100.00,West,270,6.0,14.0,44,0.00,,,0.00,403.000000,,2013-01-22 19:03:00,
2013-01-22 13:34:00,-2.0,-18.0,-100.00,WSW,245,6.0,12.0,45,0.00,,,0.00,386.000000,,2013-01-22 19:34:00,
2013-01-22 13:43:00,-2.0,-18.0,-100.00,WSW,245,6.0,12.0,45,0.00,,,0.00,386.000000,,2013-01-22 19:43:00,
2013-01-22 13:54:00,-2.0,-18.0,-100.00,WSW,245,6.0,12.0,45,0.00,,,0.00,386.000000,,2013-01-22 19:54:00,
2013-01-22 14:03:00,-2.0,-18.0,-100.00,WSW,245,6.0,12.0,45,0.00,,,0.00,386.000000,,2013-01-22 20:03:00,
2013-01-22 14:34:00,0.0,-17.0,-100.00,WSW,252,6.0,12.0,43,0.00,,,-99.99,312.000000,,2013-01-22 20:34:00,
2013-01-22 14:43:00,0.0,-17.0,-100.00,WSW,252,6.0,12.0,43,0.00,,,-99.99,312.000000,,2013-01-22 20:43:00,
2013-01-22 14:53:00,0.0,-17.0,-100.00,WSW,252,6.0,12.0,43,0.00,,,-99.99,312.000000,,2013-01-22 20:53:00,
2013-01-22 15:03:00,0.0,-17.0,-100.00,WSW,252,6.0,12.0,43,0.00,,,-99.99,312.000000,,2013-01-22 21:03:00,
2013-01-22 15:34:00,0.0,-17.0,-100.00,WSW,237,6.0,11.0,44,0.00,,,0.00,211.000000,,2013-01-22 21:34:00,
2013-01-22 15:43:00,0.0,-17.0,-100.00,WSW,237,6.0,11.0,44,0.00,,,0.00,211.000000,,2013-01-22 21:43:00,
2013-01-22 15:53:00,0.0,-17.0,-100.00,WSW,237,6.0,11.0,44,0.00,,,0.00,211.000000,,2013-01-22 21:53:00,
2013-01-22 16:03:00,0.0,-17.0,-100.00,WSW,237,6.0,11.0,44,0.00,,,0.00,211.000000,,2013-01-22 22:03:00,
2013-01-22 16:33:00,-1.0,-16.0,-100.00,SW,235,5.0,10.0,47,0.00,,,0.00,111.000000,,2013-01-22 22:33:00,
2013-01-22 16:43:00,-1.0,-16.0,-100.00,SW,235,5.0,10.0,47,0.00,,,0.00,111.000000,,2013-01-22 22:43:00,
2013-01-22 16:53:00,-1.0,-16.0,-100.00,SW,235,5.0,10.0,47,0.00,,,0.00,111.000000,,2013-01-22 22:53:00,
2013-01-22 17:03:00,-1.0,-16.0,-100.00,SW,235,5.0,10.0,47,0.00,,,0.00,111.000000,,2013-01-22 23:03:00,
2013-01-22 17:33:00,-2.0,-16.0,-100.00,SW,217,4.0,7.0,51,0.00,,,0.00,20.000000,,2013-01-22 23:33:00,
2013-01-22 17:43:00,-2.0,-16.0,-100.00,SW,217,4.0,7.0,51,0.00,,,0.00,20.000000,,2013-01-22 23:43:00,
2013-01-22 17:53:00,-2.0,-16.0,-100.00,SW,217,4.0,7.0,51,0.00,,,0.00,20.000000,,2013-01-22 23:53:00,
2013-01-22 18:03:00,-2.0,-16.0,-100.00,SW,217,4.0,7.0,51,0.00,,,0.00,20.000000,,2013-01-23 00:03:00,
2013-01-22 18:33:00,-2.0,-15.0,-100.00,SSW,213,4.0,7.0,54,0.00,,,0.00,0.000000,,2013-01-23 00:33:00,
2013-01-22 18:43:00,-2.0,-15.0,-100.00,SSW,213,4.0,7.0,54,0.00,,,0.00,0.000000,,2013-01-23 00:43:00,
2013-01-22 18:52:00,-2.0,-15.0,-100.00,SSW,213,4.0,7.0,54,0.00,,,0.00,0.000000,,2013-01-23 00:52:00,
2013-01-22 19:03:00,-2.0,-15.0,-100.00,SSW,213,4.0,7.0,54,0.00,,,0.00,0.000000,,2013-01-23 01:03:00,
2013-01-22 19:33:00,-2.0,-14.0,-100.00,SW,222,5.0,8.0,56,0.00,,,-99.99,0.000000,,2013-01-23 01:33:00,
2013-01-22 19:43:00,-2.0,-14.0,-100.00,SW,222,5.0,8.0,56,0.00,,,-99.99,0.000000,,2013-01-23 01:43:00,
2013-01-22 19:53:00,-2.0,-14.0,-100.00,SW,222,5.0,8.0,56,0.00,,,-99.99,0.000000,,2013-01-23 01:53:00,
2013-01-22 20:03:00,-2.0,-14.0,-100.00,SW,222,5.0,8.0,56,0.00,,,-99.99,0.000000,,2013-01-23 02:03:00,
2013-01-22 20:33:00,-3.0,-14.0,-100.00,SW,217,4.0,7.0,58,0.00,,,0.00,0.000000,,2013-01-23 02:33:00,
2013-01-22 20:43:00,-3.0,-14.0,-100.00,SW,217,4.0,7.0,58,0.00,,,0.00,0.000000,,2013-01-23 02:43:00,
2013-01-22 20:53:00,-3.0,-14.0,-100.00,SW,217,4.0,7.0,58,0.00,,,0.00,0.000000,,2013-01-23 02:53:00,
2013-01-22 21:03:00,-3.0,-14.0,-100.00,SW,217,4.0,7.0,58,0.00,,,0.00,0.000000,,2013-01-23 03:03:00,
2013-01-22 21:33:00,-9.0,-18.0,-100.00,South,173,1.0,5.0,65,0.00,,,0.00,0.000000,,2013-01-23 03:33:00,
2013-01-22 21:43:00,-9.0,-18.0,-100.00,South,173,1.0,5.0,65,0.00,,,0.00,0.000000,,2013-01-23 03:43:00,
2013-01-22 21:53:00,-9.0,-18.0,-100.00,South,173,1.0,5.0,65,0.00,,,0.00,0.000000,,2013-01-23 03:53:00,
2013-01-22 22:03:00,-9.0,-18.0,-100.00,South,173,1.0,5.0,65,0.00,,,0.00,0.000000,,2013-01-23 04:03:00,
2013-01-22 22:33:00,-8.0,-15.0,-100.00,SSW,212,2.0,6.0,71,0.00,,,0.00,0.000000,,2013-01-23 04:33:00,
2013-01-22 22:43:00,-8.0,-15.0,-100.00,SSW,212,2.0,6.0,71,0.00,,,0.00,0.000000,,2013-01-23 04:43:00,
2013-01-22 22:53:00,-8.0,-15.0,-100.00,SSW,212,2.0,6.0,71,0.00,,,0.00,0.000000,,2013-01-23 04:53:00,
2013-01-22 23:03:00,-8.0,-15.0,-100.00,SSW,212,2.0,6.0,71,0.00,,,0.00,0.000000,,2013-01-23 05:03:00,
2013-01-22 23:33:00,-8.0,-15.0,-100.00,South,182,1.0,4.0,70,0.00,,,0.00,0.000000,,2013-01-23 05:33:00,
2013-01-22 23:43:00,-8.0,-15.0,-100.00,South,182,1.0,4.0,70,0.00,,,0.00,0.000000,,2013-01-23 05:43:00,
2013-01-22 23:53:00,-8.0,-15.0,-100.00,South,182,1.0,4.0,70,0.00,,,0.00,0.000000,,2013-01-23 05:53:00,